Regional Weather Roundup
Issued by NWS

Home | Current Version | Previous Version | Graphics & Text | Print | Product List | Glossary On
Versions: 1 2 3 4 5 6 7 8 9 10 11 12 13 14 15 16 17 18 19 20 21 22 23 24 25 26 27
000
ASUS45 KSLC 240810
RWRUT

UTAH REGIONAL WEATHER ROUNDUP
NATIONAL WEATHER SERVICE SALT LAKE CITY UT
200 AM MDT SAT SEP 24 2016

UTZ001>011-023>025-240900-

NORTHERN UTAH

CITY           SKY/WX    TMP DP  RH WIND       PRES   REMARKS
BRIGHAM CITY     N/A     48  44  85 CALM      30.06R
HILL AFB       LGT RAIN  45  43  93 S12       30.06S
LOGAN          RAIN      44  42  93 SE5       30.04R
OGDEN          LGT RAIN  46  45  96 S9        30.05S
PROVO AIRPORT  LGT RAIN  46  44  93 E7        30.13R
SALT LAKE CITY LGT RAIN  47  44  90 SE15      30.07R
VERNAL         CLOUDY    45  43  93 CALM      30.05R
WENDOVER       MOCLDY    50  43  76 NE3       30.08S
HEBER CITY     MIX PCPN  43  36  75 SW7       30.07R
WEST JORDAN    CLOUDY    44  44  98 SE15      30.09S

$$

UTZ012>022-026-027-240900-

SOUTHERN/CENTRAL UTAH

CITY           SKY/WX    TMP DP  RH WIND       PRES   REMARKS
BLANDING       CLOUDY    44  38  78 NE5       30.21R
BRYCE CANYON   CLEAR     37  31  78 W8        30.18R WCI  31
CEDAR CITY     CLEAR     39  36  89 SW7       30.16R WCI  34
DELTA          CLOUDY    45  43  93 E6        30.14R
MILFORD        PTCLDY    47  40  76 SW7       30.14R
MOAB/CYNLANDS  PTCLDY    50  43  77 CALM      30.04R
PRICE          CLOUDY    45  37  73 S5        30.07R
ST GEORGE      CLOUDY    57  36  44 CALM      30.08R

$$

REGIONAL REPORTS     COLORADO/ARIZONA

CITY           SKY/WX    TMP DP  RH WIND       PRES   REMARKS
CRAIG, CO      LGT RAIN  42  36  79 CALM      30.08R
GRAND JUNCTION LGT RAIN  46  43  89 NE7       30.08R
RIFLE          CLOUDY    44  42  93 W3        30.10S
MONTROSE       CLOUDY    44  34  67 CALM      30.12S
CORTEZ         CLOUDY    41  37  86 CALM      30.14S
PAGE, AZ       CLEAR     55  35  47 W5        30.08S
GRAND CANYON   CLEAR     35  31  85 CALM      30.20S
KINGMAN        CLEAR     50  32  50 CALM      30.09R
FLAGSTAFF      CLEAR     38  29  70 CALM      30.21R

$$

REGIONAL REPORTS    NEVADA/IDAHO/WYOMING

CITY           SKY/WX    TMP DP  RH WIND       PRES   REMARKS
LAS VEGAS, NV  PTCLDY    68  25  19 SW7       30.01S
ELY            PTCLDY    39  30  70 CALM      30.21R
ELKO           CLOUDY    54  32  43 NW8       30.19R
POCATELLO, ID  CLOUDY    48  45  89 N5        30.02R
BURLEY         MOCLDY    50  38  63 W12G22    30.01R
EVANSTON, WY   SNOW      33  31  92 SW17      30.04S VSB 1/2 WCI  22
ROCK SPRINGS   CLOUDY    38  36  92 SW9       30.04S WCI  31

$$




USA.gov is the U.S. government's official web portal to all federal, state and local government web resources and services.